Location: Casper
(42.8670°N, 106.3130°W)
Time: 14:35:24
(UTC-06:00)

Daily predictions for brighter satellites

Satellite Brightness Start Highest point End
(mag) Time Altitude Azimuth Time Altitude Azimuth Time Altitude Azimuth
BREEZE-M DEB (TANK) 4.1 20:18:47 10° WNW 20:22:55 72° NNE 20:39:04 10° E
ATLAS 5 CENTAUR R/B 2.5 20:27:38 10° NW 20:33:39 85° NE 20:40:12 10° SE
Cosmos 1908 Rocket 4.4 20:29:59 10° NNE 20:33:52 31° ENE 20:37:43 10° SE
BREEZE-M DEB (TANK) 4.0 20:31:23 10° SW 20:35:17 57° SE 20:44:36 10° ENE
Cosmos 1992 Rocket 4.1 20:31:06 10° SSW 20:36:20 85° WNW 20:41:38 10° NNE
Resurs 01 Rocket 1.9 20:33:30 10° S 20:37:56 73° WSW 20:42:25 10° NNW
COSMOS 2428 3.7 20:34:22 10° SSE 20:38:59 26° ESE 20:43:36 10° NE
Helios 1A 3.3 20:36:55 10° SSE 20:41:03 52° ENE 20:45:11 10° N
Cosmos 1939 Rocket 3.7 20:37:46 10° SE 20:41:23 33° ENE 20:44:59 10° N
CZ-4B DEB 3.6 20:39:07 10° SE 20:41:49 30° ENE 20:44:32 10° N
Abrixas rocket 3.8 20:40:49 10° WNW 20:43:48 30° N 20:46:45 10° ENE
USA 267 3.3 20:41:39 10° NE 20:48:15 86° SE 20:54:48 10° SW
Cosmos 1733 Rocket 3.3 20:44:10 10° N 20:48:38 79° W 20:53:05 10° S
YAOGAN 6 4.0 20:46:05 10° ESE 20:48:56 22° ENE 20:51:46 10° NNE
Okean 1-7 4.3 20:46:14 10° SE 20:49:37 22° E 20:53:01 10° NE
Atlas Centaur 2 3.6 20:44:33 10° SW 20:49:39 28° S 20:55:28 11° ESE
Sich 1 Rocket 4.0 20:45:41 10° N 20:50:02 46° ENE 20:54:24 10° SSE
Cosmos 2322 3.7 20:46:20 10° S 20:51:57 63° ESE 20:57:36 10° NNE
SL-16 R/B 3.6 20:49:49 10° SW 20:55:13 45° WNW 21:00:40 10° NNE
Cosmos 1862 Rocket 4.0 20:57:02 10° SSW 21:01:28 70° W 21:05:58 10° N
Cosmos 968 Rocket 3.5 20:59:35 10° NNW 21:04:49 87° WSW 21:10:04 10° SSE
Cosmos 1844 Rocket 3.2 21:01:58 10° NNW 21:07:16 42° ENE 21:11:29 15° SE
Meteor 2-10 Rocket 3.7 21:02:10 10° S 21:07:59 78° E 21:13:44 10° NNE
Okean 2 Rocket 4.0 21:05:47 10° N 21:09:52 32° ENE 21:12:42 17° SE
Cosmos 2237 Rocket 3.7 21:08:37 14° ESE 21:09:53 15° E 21:13:00 10° ENE
Meteor 1-14 Rocket 4.4 21:04:41 10° N 21:10:21 61° ENE 21:16:02 10° SSE
CZ-4C R/B 3.8 21:04:39 10° NNW 21:10:53 34° NE 21:17:07 12° E
Lacrosse 4 Rocket 4.3 21:09:31 10° WNW 21:11:35 13° WSW 21:13:39 10° SW
Cosmos 2278 Rocket 3.7 21:09:21 10° N 21:13:47 23° NE 21:17:25 13° E
Helios 1B rocket 2.5 21:09:52 10° NNE 21:13:59 85° WNW 21:18:05 10° SSW
Cosmos 2333 Rocket 3.2 21:13:47 12° SSE 21:17:55 25° ESE 21:22:32 10° NE
Cosmos 1633 4.5 21:19:50 10° NE 21:22:02 15° ENE 21:22:38 14° E
Cosmos 1703 Rocket 3.5 21:18:08 10° S 21:22:32 75° E 21:26:57 10° NNE
USA 234 3.5 21:17:39 15° ESE 21:23:04 64° NE 21:29:32 10° NW
Meteor 1-29 3.1 21:20:28 10° N 21:23:57 75° WNW 21:27:22 10° SSW
USA 186 4.0 21:21:58 10° SSW 21:24:18 22° W 21:26:46 10° NW
Envisat 3.4 21:24:13 10° S 21:29:13 62° W 21:34:17 10° NNW
Cosmos 2219 Rocket 2.6 21:25:46 10° S 21:30:55 39° ESE 21:36:06 10° NE
SPOT 5 3.4 21:37:06 25° ESE 21:39:14 40° ENE 21:43:29 10° N
SeaSat 1 3.7 21:38:34 19° E 21:41:00 28° NE 21:45:11 10° N
Cosmos 2151 Rocket 4.3 21:40:39 10° N 21:44:47 36° ENE 21:46:05 30° ESE
ERS-1 Rocket 2.9 21:41:58 20° SSE 21:45:31 90° ENE 21:50:35 10° NNW
NOSS 0 Rocket 4.3 21:44:08 16° SSE 21:48:28 40° ESE 21:54:09 10° NE
H-2A R/B 2.9 21:47:20 25° ESE 21:49:01 31° ENE 21:53:19 10° N
Cosmos 2263 Rocket 4.5 21:46:18 10° NW 21:50:08 19° W 21:53:57 10° SW
Cosmos 2266 Rocket 4.4 21:48:28 10° NNW 21:54:43 64° W 22:00:58 10° S
Cosmos 1782 2.7 21:54:00 31° S 21:55:47 72° E 21:59:47 10° NNE
Cosmos 1570 Rocket 4.0 21:51:52 17° S 21:55:50 58° ESE 22:01:02 10° NNE
Cosmos 2221 Rocket 4.0 21:52:11 10° SSW 21:56:33 63° W 22:00:59 10° N
YAOGAN 11 4.0 21:58:33 37° SSE 22:00:15 80° ENE 22:04:35 10° N
MetOp-B 4.1 21:58:32 28° SSE 22:01:28 86° ENE 22:06:51 10° NNW
ASTEX 1 4.4 22:00:41 28° E 22:01:37 30° ENE 22:05:55 10° NNE
Iridium 4 Rocket 4.4 22:01:11 10° NNE 22:04:12 22° ENE 22:04:12 22° ENE
H-2A R/B 3.4 22:04:32 24° ENE 22:05:02 25° ENE 22:08:37 10° NNE
NOSS 3-1 (C) 3.3 22:00:52 10° SSW 22:06:37 82° ESE 22:13:07 10° NE
Cosmos 1346 Rocket 3.3 22:07:05 41° E 22:07:05 41° E 22:10:37 10° NNE
Cosmos 2208 Rocket 3.9 22:05:31 20° S 22:09:12 69° ESE 22:14:29 10° NNE
Terra 2.9 22:11:24 27° E 22:12:06 28° ENE 22:16:08 10° N
Cosmos 2360 Rocket 4.3 22:08:37 10° WSW 22:13:25 28° NW 22:18:16 10° N
Meteor 1-27 Rocket 3.8 22:15:33 40° SSE 22:17:18 56° E 22:22:45 10° NNE
Abrixas rocket 2.5 22:17:40 10° WNW 22:20:39 62° NNW 22:20:39 62° NNW
COSMOS 2428 3.7 22:17:27 10° SW 22:22:55 48° WNW 22:28:27 10° NNE
Cosmos 1898 Rocket 3.8 22:18:47 10° N 22:23:51 49° ENE 22:24:51 43° E
Cosmos 1606 3.1 22:23:21 42° SW 22:24:21 60° W 22:28:07 10° N
NOSS 3-1 (A) 3.2 22:18:43 10° SSW 22:24:29 81° SE 22:30:59 10° NE
Cosmos 1300 Rocket 3.8 22:20:22 10° N 22:24:37 49° ENE 22:24:42 49° E
ARGOS 3.2 22:22:45 37° S 22:24:56 77° WSW 22:30:20 10° NNW
ATLAS 2AS CENTAUR R/B 4.0 22:26:52 25° E 22:26:52 25° E 22:32:15 10° NE
Cosmos 1980 3.6 22:23:56 31° S 22:26:42 71° ESE 22:32:20 10° NNE
SWAS 4.3 22:25:12 10° NNW 22:29:32 82° WSW 22:29:58 71° S
Cosmos 1844 4.1 22:24:04 10° NNW 22:29:36 57° WSW 22:31:42 36° SSW
SL-08 R/B 4.4 22:23:51 10° N 22:30:00 75° E 22:31:57 45° SSE
Cosmos 2084 3.4 22:27:29 10° NW 22:31:19 61° SW 22:31:20 61° SW
Cosmos 1553 Rocket 3.9 22:30:41 38° S 22:33:13 76° E 22:39:25 10° N
SL-16 R/B 3.2 22:35:09 29° E 22:35:09 29° E 22:39:01 10° NE
SPOT 1/Viking Rocket 3.5 22:35:38 50° S 22:37:01 80° WSW 22:42:16 10° NNW
Atlas Centaur 2 3.9 22:32:56 10° WSW 22:38:05 24° SSW 22:38:05 24° SSW
SL-08 RB Rocket 4.1 22:43:17 49° SW 22:44:06 57° W 22:48:36 10° NNW
Meteor 1-11 Rocket 3.6 22:39:40 10° NNW 22:45:14 83° W 22:46:32 55° S
ATLAS CENTAUR R/B 3.4 22:48:56 18° NE 22:48:56 18° NE 22:50:04 10° NE
Cosmos 1814 Rocket 4.5 22:47:03 43° ENE 22:47:03 43° ENE 22:51:07 10° NNE
ATLAS 3B R/B 4.0 22:41:16 10° NNW 22:47:15 30° NE 22:50:28 21° E
Cosmos 1378 Rocket 4.2 22:50:24 45° NE 22:50:24 45° NE 22:53:50 10° NNE
Okean 3 4.3 22:50:39 40° NE 22:50:39 40° NE 22:53:35 10° NNE
Cosmos 1844 Rocket 4.2 22:46:15 10° NW 22:50:56 28° WSW 22:53:10 21° SW
Cosmos 2237 Rocket 2.2 22:50:19 31° SSW 22:53:12 78° WNW 22:58:55 10° NNE
Cosmos 468 Rocket 3.8 22:53:13 73° SSE 22:53:36 78° ESE 22:58:56 10° NNE
Cosmos 1633 4.0 22:53:47 10° NNW 22:56:56 34° W 22:56:56 34° W
Meteor 2-11 Rocket 4.3 22:56:04 52° S 22:57:40 90° W 23:03:48 10° N
CZ-4B R/B 4.3 22:53:16 10° NNE 22:56:34 35° ENE 22:56:34 35° ENE
Cosmos 2278 Rocket 2.4 22:52:44 10° NNW 22:58:19 61° WSW 22:59:16 53° SSW
CZ-4C R/B 3.0 22:52:52 10° NW 23:00:02 70° WSW 23:02:18 48° S
Cosmos 883 Rocket 4.4 22:59:32 59° ESE 23:00:04 61° E 23:06:05 10° NNE
Cosmos 1386 Rocket 4.4 22:54:02 10° N 23:00:27 82° E 23:01:39 61° SSE
IGS 5A 3.9 23:01:34 59° N 23:01:34 59° N 23:05:00 10° N
Cosmos 2333 Rocket 3.0 22:56:15 10° SW 23:01:50 50° WNW 23:07:28 10° NNE
Cosmos 1536 3.4 22:58:33 10° N 23:01:47 55° NNW 23:01:47 55° NNW
S3M 4.2 23:03:20 37° SSW 23:05:46 65° W 23:11:59 10° N
USA 234 3.9 23:04:59 37° SSW 23:06:16 40° SW 23:12:22 10° WNW
H-2A R/B 4.2 22:26:44 10° W 23:06:57 36° SSW 23:08:56 33° S
Timation 1 Rocket 4.3 23:02:01 10° NNW 23:07:58 70° WSW 23:08:45 62° SSW
Cosmos 1709 Rocket 4.0 23:05:20 10° N 23:11:40 63° E 23:12:17 60° ESE
deb Chang Zheng 4 4.0 23:08:31 10° NNE 23:12:09 60° N 23:12:09 60° N
CARTOSAT-1 4.0 23:13:48 60° NW 23:13:48 60° NW 23:17:29 10° NNW
Cosmos 2219 Rocket 3.8 23:09:56 10° WSW 23:14:55 32° NW 23:19:57 10° N
SeaSat 1 3.1 23:18:21 44° WSW 23:18:21 44° WSW 23:23:03 10° NW
SL-19 R/B 4.5 23:21:36 10° N 23:27:34 71° WNW 23:28:30 60° SW
H-2A R/B 3.2 23:27:57 30° WSW 23:28:23 31° W 23:32:45 10° NW
Meteor 1-5 Rocket 4.4 23:22:55 10° NNW 23:28:36 67° W 23:29:00 64° WSW
Okean 1 Rocket 4.2 23:27:33 10° NNW 23:31:13 40° WNW 23:31:13 40° WNW
Cosmos 1937 Rocket 4.0 23:32:28 10° NNW 23:37:08 50° W 23:37:08 50° W
H-2A R/B 3.6 23:41:39 29° WNW 23:41:39 29° WNW 23:44:49 10° NNW
Cosmos 2074 Rocket 4.5 23:35:38 10° N 23:41:28 46° ENE 23:41:28 46° ENE
Meteor 1-12 Rocket 4.4 23:43:09 10° N 23:48:47 71° NE 23:48:47 71° NE
Terra 3.2 23:50:16 31° W 23:50:16 31° W 23:54:01 10° NNW
Cosmos 1943 Rocket 4.2 23:47:08 10° N 23:50:59 18° NE 23:52:29 17° ENE
Cosmos 2369 Rocket 3.4 23:46:48 10° N 23:51:44 30° NE 23:52:03 30° ENE
